TimeEST,TemperatureF,Dew PointF,Humidity,Sea Level PressureIn,VisibilityMPH,Wind Direction,Wind SpeedMPH,Gust SpeedMPH,PrecipitationIn,Events,Conditions,WindDirDegrees,DateUTC
12:58 AM,60.1,55.9,86,30.21,10.0,North,17.3,-,N/A,,Overcast,360,2012-11-18 05:58:00
1:58 AM,60.1,55.9,86,30.19,9.0,North,16.1,-,N/A,,Overcast,360,2012-11-18 06:58:00
2:09 AM,60.8,55.4,82,30.19,9.0,North,15.0,-,N/A,,Overcast,350,2012-11-18 07:09:00
2:58 AM,60.1,57.0,90,30.18,8.0,North,12.7,-,N/A,,Overcast,350,2012-11-18 07:58:00
3:58 AM,60.1,57.0,90,30.18,8.0,North,13.8,-,N/A,,Overcast,350,2012-11-18 08:58:00
4:58 AM,60.1,57.0,90,30.19,10.0,North,19.6,24.2,N/A,,Overcast,350,2012-11-18 09:58:00
5:26 AM,60.8,55.4,82,30.20,10.0,North,17.3,23.0,N/A,,Overcast,360,2012-11-18 10:26:00
5:58 AM,60.1,55.9,86,30.20,10.0,North,17.3,23.0,N/A,,Overcast,350,2012-11-18 10:58:00
6:58 AM,59.0,55.9,90,30.22,5.0,North,17.3,24.2,N/A,,Overcast,360,2012-11-18 11:58:00
7:58 AM,59.0,55.0,87,30.24,10.0,North,17.3,-,N/A,,Overcast,10,2012-11-18 12:58:00
8:58 AM,59.0,54.0,83,30.24,5.0,North,16.1,-,N/A,,Haze,350,2012-11-18 13:58:00
9:58 AM,57.9,53.1,84,30.26,5.0,North,15.0,-,N/A,,Haze,360,2012-11-18 14:58:00
10:58 AM,59.0,53.1,81,30.26,5.0,North,15.0,-,N/A,,Haze,350,2012-11-18 15:58:00
11:58 AM,59.0,53.1,81,30.24,5.0,North,17.3,23.0,N/A,,Haze,350,2012-11-18 16:58:00
12:58 PM,59.0,53.1,81,30.21,5.0,North,16.1,-,N/A,,Haze,350,2012-11-18 17:58:00
1:58 PM,59.0,54.0,83,30.20,10.0,North,12.7,-,N/A,,Overcast,350,2012-11-18 18:58:00
2:29 PM,60.8,53.6,77,30.20,10.0,North,9.2,-,N/A,,Overcast,10,2012-11-18 19:29:00
2:58 PM,62.1,53.1,72,30.19,10.0,North,9.2,-,N/A,,Scattered Clouds,360,2012-11-18 19:58:00
3:58 PM,62.1,54.0,75,30.19,10.0,NNE,6.9,-,N/A,,Clear,20,2012-11-18 20:58:00
4:58 PM,60.1,54.0,80,30.19,10.0,NNE,6.9,-,N/A,,Clear,20,2012-11-18 21:58:00
5:58 PM,59.0,55.0,87,30.20,10.0,North,8.1,-,N/A,,Clear,10,2012-11-18 22:58:00
6:58 PM,59.0,55.0,87,30.21,10.0,North,8.1,-,N/A,,Clear,360,2012-11-18 23:58:00
7:58 PM,57.0,54.0,89,30.22,10.0,NW,5.8,-,N/A,,Mostly Cloudy,320,2012-11-19 00:58:00
8:58 PM,60.1,55.0,83,30.22,10.0,North,17.3,-,N/A,,Overcast,10,2012-11-19 01:58:00
9:07 PM,60.8,53.6,77,30.21,10.0,North,13.8,-,N/A,,Overcast,10,2012-11-19 02:07:00
9:58 PM,59.0,53.1,81,30.21,10.0,North,19.6,24.2,N/A,,Overcast,350,2012-11-19 02:58:00
10:58 PM,57.9,52.0,81,30.21,10.0,North,15.0,-,N/A,,Overcast,350,2012-11-19 03:58:00
11:58 PM,57.9,52.0,81,30.19,10.0,North,15.0,20.7,N/A,,Overcast,350,2012-11-19 04:58:00